TimePST,TemperatureF,Dew PointF,Humidity,Sea Level PressureIn,VisibilityMPH,Wind Direction,Wind SpeedMPH,Gust SpeedMPH,PrecipitationIn,Events,Conditions,WindDirDegrees,DateUTC
12:12 AM,37.4,37.4,100,30.19,3.0,SW,3.5,-,N/A,,Overcast,230,2013-01-06 08:12:00
12:54 AM,37.0,37.0,100,30.20,3.0,South,4.6,-,N/A,,Overcast,190,2013-01-06 08:54:00
1:19 AM,37.4,37.4,100,30.19,2.5,SSW,4.6,-,N/A,,Overcast,210,2013-01-06 09:19:00
1:32 AM,37.4,35.6,93,30.19,3.0,WSW,4.6,-,N/A,,Overcast,240,2013-01-06 09:32:00
1:54 AM,36.0,36.0,100,30.21,5.0,WSW,4.6,-,N/A,,Mostly Cloudy,240,2013-01-06 09:54:00
2:25 AM,35.6,35.6,100,30.20,2.5,Calm,Calm,-,N/A,,Mostly Cloudy,0,2013-01-06 10:25:00
2:34 AM,35.6,33.8,93,30.20,2.5,Calm,Calm,-,N/A,,Overcast,0,2013-01-06 10:34:00
2:43 AM,35.6,35.6,100,30.20,3.0,SSE,3.5,-,N/A,,Overcast,150,2013-01-06 10:43:00
2:54 AM,36.0,36.0,100,30.22,3.0,SSW,3.5,-,N/A,,Overcast,200,2013-01-06 10:54:00
3:00 AM,35.6,35.6,100,30.20,1.5,SSW,3.5,-,N/A,,Overcast,210,2013-01-06 11:00:00
3:03 AM,35.6,35.6,100,30.20,0.8,SSW,3.5,-,N/A,,Overcast,210,2013-01-06 11:03:00
3:12 AM,35.6,35.6,100,30.20,0.2,Calm,Calm,-,N/A,Fog,Fog,0,2013-01-06 11:12:00
3:21 AM,35.6,35.6,100,30.21,0.5,Calm,Calm,-,N/A,Fog,Fog,0,2013-01-06 11:21:00
3:38 AM,37.4,37.4,100,30.20,1.5,Calm,Calm,-,N/A,,Overcast,0,2013-01-06 11:38:00
3:47 AM,37.4,37.4,100,30.20,2.5,Calm,Calm,-,N/A,,Overcast,0,2013-01-06 11:47:00
3:54 AM,37.0,37.0,100,30.21,3.0,West,3.5,-,N/A,,Overcast,280,2013-01-06 11:54:00
4:54 AM,37.9,37.9,100,30.20,6.0,South,3.5,-,N/A,,Overcast,180,2013-01-06 12:54:00
5:54 AM,39.0,39.0,100,30.20,6.0,Calm,Calm,-,N/A,,Overcast,0,2013-01-06 13:54:00
6:54 AM,39.0,37.9,96,30.24,8.0,Calm,Calm,-,N/A,,Overcast,0,2013-01-06 14:54:00
7:54 AM,39.0,37.9,96,30.23,6.0,ESE,3.5,-,N/A,,Overcast,120,2013-01-06 15:54:00
8:16 AM,39.2,39.2,100,30.22,6.0,SE,4.6,-,N/A,,Overcast,130,2013-01-06 16:16:00
8:54 AM,39.9,39.0,97,30.24,5.0,SSE,3.5,-,N/A,,Overcast,160,2013-01-06 16:54:00
9:54 AM,43.0,39.9,89,30.24,7.0,SE,5.8,-,N/A,,Mostly Cloudy,140,2013-01-06 17:54:00
10:54 AM,46.0,42.1,86,30.25,10.0,SSW,3.5,-,N/A,,Scattered Clouds,200,2013-01-06 18:54:00
11:54 AM,48.0,42.1,80,30.22,10.0,South,3.5,-,N/A,,Scattered Clouds,190,2013-01-06 19:54:00
12:54 PM,50.0,42.8,76,30.18,10.0,Variable,3.5,-,N/A,,Scattered Clouds,0,2013-01-06 20:54:00
1:54 PM,50.0,41.0,71,30.19,10.0,Calm,Calm,-,N/A,,Overcast,0,2013-01-06 21:54:00
2:54 PM,50.0,42.1,74,30.17,10.0,South,6.9,-,N/A,,Overcast,180,2013-01-06 22:54:00
3:54 PM,48.0,41.0,77,30.17,10.0,South,8.1,-,N/A,,Overcast,170,2013-01-06 23:54:00
4:54 PM,46.0,41.0,83,30.17,10.0,SSE,8.1,-,N/A,,Mostly Cloudy,160,2013-01-07 00:54:00
5:54 PM,46.0,41.0,83,30.18,10.0,South,4.6,-,N/A,,Overcast,180,2013-01-07 01:54:00
7:54 PM,46.0,41.0,83,30.17,10.0,South,5.8,-,0.00,,Overcast,170,2013-01-07 03:54:00
8:54 PM,46.0,41.0,83,30.16,10.0,SSE,8.1,-,0.00,Rain,Light Rain,160,2013-01-07 04:54:00
9:54 PM,46.9,41.0,80,30.16,10.0,South,12.7,-,0.00,,Overcast,170,2013-01-07 05:54:00
10:54 PM,46.9,39.9,77,30.15,10.0,South,10.4,-,N/A,,Overcast,170,2013-01-07 06:54:00
11:04 PM,46.4,39.2,76,30.14,10.0,South,10.4,-,N/A,,Overcast,180,2013-01-07 07:04:00
11:54 PM,46.9,39.9,77,30.14,10.0,South,13.8,-,0.00,,Overcast,190,2013-01-07 07:54:00